Regional Weather Roundup
Issued by NWS

Home | Current Version | Previous Version | Text Only | Print | Product List | Glossary Off
Versions: 1 2 3 4 5 6 7 8 9 10 11 12 13 14 15 16 17 18 19 20 21 22 23 24 25 26 27 28 29 30 31 32 33 34 35 36 37 38 39 40 41 42 43 44 45 46 47 48 49 50

000
ASUS45 KSLC 231310
RWRUT

UTAH REGIONAL WEATHER ROUNDUP
NATIONAL WEATHER SERVICE SALT LAKE CITY UT
700 AM MDT SAT JUL 23 2016

UTZ001>011-023>025-231400-

NORTHERN UTAH

CITY           SKY/WX    TMP DP  RH WIND       PRES   REMARKS
BRIGHAM CITY     N/A     61  31  32 N5        30.14R
HILL AFB       CLEAR     64  36  35 E14       30.16R
LOGAN          CLEAR     54  42  64 E3        30.18R
OGDEN          CLEAR     65  37  35 S9        30.13R
PROVO AIRPORT  PTCLDY    64  48  55 NE6       30.14R
SALT LAKE CITY PTCLDY    71  34  25 N3        30.13R
VERNAL         CLOUDY    61  48  62 SW3       30.18R
WENDOVER       PTCLDY    70  28  21 W8        30.17R
HEBER CITY     CLEAR     52  46  82 CALM      30.21R

$$

UTZ012>022-026-027-231400-

SOUTHERN/CENTRAL UTAH

CITY           SKY/WX    TMP DP  RH WIND       PRES   REMARKS
BLANDING       PTCLDY    65  47  53 N8        30.29S
BRYCE CANYON   CLEAR     49  44  83 W5        30.37R
CEDAR CITY     CLEAR     68  40  35 SE7       30.19R
DELTA          CLEAR     66  32  28 E3        30.14R
MILFORD        CLEAR     62  24  23 CALM      30.15R
MOAB/CYNLANDS  CLEAR     73  51  46 SE7       30.10R
PRICE          CLEAR     62  48  60 N9        30.21R
ST GEORGE      SUNNY     79  45  29 SE5       30.00R
KANAB          CLEAR     68  46  45 N9        30.18S

$$

REGIONAL REPORTS     COLORADO/ARIZONA

CITY           SKY/WX    TMP DP  RH WIND       PRES   REMARKS
CRAIG, CO      CLOUDY    54  46  74 CALM      30.27R
GRAND JUNCTION CLEAR     68  54  60 SE7       30.16R
RIFLE          CLOUDY    60  52  74 CALM      30.24R
MONTROSE       CLOUDY    60  49  66 SE6       30.27R
CORTEZ         CLEAR     58  47  66 CALM      30.24S
PAGE, AZ       CLEAR     77  49  37 W3        30.09R
GRAND CANYON   CLEAR     53  49  86 CALM      30.30S
KINGMAN        PTCLDY    82  47  29 SE12      30.02R
FLAGSTAFF      PTCLDY    56  49  77 CALM      30.32R

$$

REGIONAL REPORTS    NEVADA/IDAHO/WYOMING

CITY           SKY/WX    TMP DP  RH WIND       PRES   REMARKS
LAS VEGAS, NV  PTCLDY    87  32  14 SW3       29.84R
ELY            PTCLDY    45  19  35 S12       30.28S
ELKO           PTCLDY    46  18  32 CALM      30.24R
POCATELLO, ID  CLEAR     60  38  43 SW15      30.20R
BURLEY         CLEAR     58  42  55 SW8       30.17R
EVANSTON, WY   CLOUDY    57  33  40 S6        30.32R
ROCK SPRINGS   CLOUDY    60  37  42 W3        30.28R
KEMMERER         N/A     54  27  35 N7        30.32R

$$



USA.gov is the U.S. government's official web portal to all federal, state and local government web resources and services.